Change the Weather History Date:

Friday, January 4, 2013

  Actual Average Record
Temperature  
Mean Temperature 29 °F 16 °F  
Max Temperature 33 °F 24 °F 44 °F (1897)
Min Temperature 24 °F 9 °F -32 °F (1981)
Degree Days  
Heating Degree Days 36 49  
Month to date heating degree days 183 193  
Since 1 July heating degree days 3150 3452  
Moisture  
Dew Point 18 °F    
Average Humidity 65    
Maximum Humidity 75    
Minimum Humidity 54    
Precipitation  
Precipitation 0.02 in 0.08 in 1.07 in (1997)
Month to date precipitation 0.15 0.31  
Year to date precipitation 0.15 0.31  
Snow  
Snow 0.40 in 1.10 in 7.20 in (1982)
Month to date snowfall 3.8 4.2  
Since 1 July snowfall 55.8 54.4  
Snow Depth 11.00 in    
Sea Level Pressure  
Sea Level Pressure 29.81 in    
Wind  
Wind Speed 15 mph (West)    
Max Wind Speed 28 mph    
Max Gust Speed 38 mph    
Visibility 10 miles    
Events Snow    
T = Trace of Precipitation, MM = Missing Value Source: NWS Daily Summary

Daily Weather History Graph

Daily Weather History Graph

Search for Another Location

Airport or City:

Trip Planner

Search our weather history database for the weather conditions in past years. The results will help you decide how hot, cold, wet, or windy it might be!

Date:

Astronomy

Jan. 04, 2013 Rise Set
Actual Time 8:21 AM EST 5:04 PM EST
Civil Twilight 7:46 AM EST 5:38 PM EST
Nautical Twilight 7:08 AM EST 6:17 PM EST
Astronomical Twilight 6:31 AM EST 6:53 PM EST
Moon 12:03 AM EST (1/4) 11:35 AM EST (1/4)
Length of Visible Light 9h 52m
Length of Day
8h 43m
Waning Gibbous, 55% of the Moon is Illuminated
Jan 4
Waning Gibbous
Jan 4
Last Quarter
Jan 11
New
Jan 18
First Quarter
Jan 26
Full

Hourly Weather History & Observations

Time (EST) Temp. Windchill Dew Point Humidity Pressure Visibility Wind Dir Wind Speed Gust Speed Precip Events Conditions
12:55 AM 27.0 °F 15.6 °F 18.0 °F 69% 29.75 in 10.0 mi SW 13.8 mph 20.7 mph N/A   Overcast
1:55 AM 28.0 °F 15.7 °F 21.0 °F 75% 29.74 in 10.0 mi WSW 17.3 mph 27.6 mph N/A   Mostly Cloudy
2:55 AM 28.0 °F 16.1 °F 19.0 °F 69% 29.73 in 10.0 mi WSW 16.1 mph 26.5 mph N/A   Scattered Clouds
3:55 AM 27.0 °F 13.2 °F 16.0 °F 63% 29.74 in 10.0 mi WSW 20.7 mph 28.8 mph N/A   Overcast
4:33 AM 26.1 °F 12.7 °F 15.1 °F 63% 29.71 in 10.0 mi West 18.4 mph 26.5 mph N/A   Overcast
4:55 AM 26.1 °F 12.7 °F 15.1 °F 63% 29.74 in 10.0 mi WSW 18.4 mph 28.8 mph N/A   Overcast
5:55 AM 25.0 °F 11.7 °F 15.1 °F 66% 29.74 in 10.0 mi WSW 17.3 mph 21.9 mph N/A   Overcast
6:55 AM 25.0 °F 13.1 °F 16.0 °F 69% 29.75 in 10.0 mi West 13.8 mph - 0.00 in   Overcast
7:55 AM 25.0 °F 12.2 °F 15.1 °F 66% 29.75 in 10.0 mi WSW 16.1 mph 21.9 mph N/A   Overcast
8:55 AM 26.1 °F 15.0 °F 17.1 °F 69% 29.77 in 10.0 mi West 12.7 mph - N/A   Overcast
9:55 AM 26.1 °F 15.6 °F 17.1 °F 69% 29.79 in 10.0 mi WSW 11.5 mph 18.4 mph N/A   Overcast
10:55 AM 26.1 °F 13.6 °F 17.1 °F 69% 29.79 in 10.0 mi WSW 16.1 mph - N/A   Overcast
11:55 AM 27.0 °F 16.1 °F 18.0 °F 69% 29.79 in 10.0 mi WSW 12.7 mph 21.9 mph N/A   Overcast
12:55 PM 28.0 °F 17.5 °F 19.0 °F 69% 29.78 in 10.0 mi WSW 12.7 mph 20.7 mph N/A   Overcast
1:55 PM 28.0 °F 17.5 °F 19.0 °F 69% 29.78 in 10.0 mi WSW 12.7 mph - N/A   Overcast
2:55 PM 30.0 °F 19.1 °F 19.0 °F 64% 29.77 in 10.0 mi SW 15.0 mph 21.9 mph N/A   Overcast
3:13 PM 30.0 °F 20.0 °F 17.1 °F 59% 29.75 in 10.0 mi WSW 12.7 mph - N/A   Mostly Cloudy
3:55 PM 30.9 °F 20.2 °F 17.1 °F 57% 29.79 in 10.0 mi West 15.0 mph 19.6 mph N/A   Unknown
4:12 PM 30.9 °F 21.2 °F 18.0 °F 59% 29.77 in 10.0 mi West 12.7 mph - N/A   Mostly Cloudy
4:55 PM 30.9 °F 21.2 °F 19.0 °F 61% 29.81 in 10.0 mi WSW 12.7 mph - N/A   Overcast
5:55 PM 30.9 °F 21.2 °F 19.9 °F 64% 29.81 in 10.0 mi WSW 12.7 mph - N/A   Overcast
6:08 PM 33.1 °F 21.9 °F 25.0 °F 72% 29.82 in 1.5 mi WNW 18.4 mph 26.5 mph 0.00 in Snow Light Snow
6:20 PM 33.1 °F 22.2 °F 27.0 °F 78% 29.82 in 3.0 mi WNW 17.3 mph 25.3 mph 0.01 in Snow Light Snow
6:32 PM 33.1 °F 22.2 °F 24.1 °F 70% 29.83 in 10.0 mi NW 17.3 mph 31.1 mph 0.02 in   Overcast
6:51 PM 32.0 °F 20.5 °F 21.2 °F 64% 29.84 in 9.0 mi NW 18.4 mph 29.9 mph 0.02 in   Overcast
6:55 PM 32.0 °F 20.5 °F 21.0 °F 64% 29.87 in 9.0 mi NW 18.4 mph 29.9 mph 0.02 in   Overcast
7:55 PM 30.9 °F 18.4 °F 18.0 °F 59% 29.92 in 10.0 mi WNW 20.7 mph 31.1 mph 0.00 in   Overcast
8:55 PM 32.0 °F 21.6 °F 19.0 °F 59% 29.94 in 10.0 mi WNW 15.0 mph 26.5 mph N/A   Overcast
9:55 PM 32.0 °F 21.2 °F 18.0 °F 56% 29.97 in 10.0 mi WNW 16.1 mph 26.5 mph N/A   Overcast
10:55 PM 32.0 °F 22.1 °F 18.0 °F 56% 30.00 in 10.0 mi WNW 13.8 mph 23.0 mph N/A   Overcast
11:55 PM 32.0 °F 23.0 °F 18.0 °F 56% 30.01 in 10.0 mi NW 11.5 mph 23.0 mph N/A   Overcast